{"data":{"norad_id":66359,"epoch":"2026-05-24T23:40:59.572704Z","epoch_age_seconds":70204,"freshness":"FRESH","line1":"1 66359U 25254M   26144.98680061  .00019987  00000+0  65396-3 0  9997","line2":"2 66359  53.1596 237.5923 0001632 109.9742 250.1436 15.31706708 31794","mean_motion":15.31706708,"eccentricity":0.0001632,"inclination_deg":53.1596,"raan_deg":237.5923,"arg_perigee_deg":109.9742,"mean_anomaly_deg":250.1436,"bstar":0.00065396,"rev_number":3179,"period_min":94.012776237055,"perigee_km":469.60226563743,"apogee_km":471.83773256193,"semimajor_km":6848.8569990997,"source":"CELESTRAK","updated_at":"2026-05-25T13:38:21.176191Z"}}